Temperature
20 21 21 21 21 22 22 22 21 21 21 21 21 20 21 21 21 21 20 20 20 20 19 19 18 18 18 18 18 17 17 17 17 17 16 16 16 15 15 15 15 15 15 15
21 20 21 21 21 21 21 21 21 21 21 21 21 21 21 21 21 20 21 21 20 20 19 19 18 18 18 18 17 17 17 17 17 17 16 16 16 16 15 15 15 15 15 15
21 21 21 21 21 21 21 21 21 21 21 21 21 21 21 21 21 20 20 20 20 20 20 19 19 18 18 18 18 17 17 17 17 17 16 16 16 16 15 15 15 15 15 15
21 21 21 21 21 21 21 21 21 21 21 21 21 21 22 22 21 21 20 20 20 20 19 19 19 18 18 18 18 17 17 17 17 17 17 16 16 16 16 15 15 15 15 15
21 21 21 21 21 21 21 21 21 21 21 21 21 22 22 22 22 22 21 21 20 20 19 19 18 18 18 18 18 17 17 17 17 17 17 17 16 16 16 16 15 15 15 15
21 21 21 21 21 21 21 21 21 21 21 21 22 22 22 23 23 23 22 21 20 20 19 19 18 18 18 18 18 17 17 17 17 17 17 17 16 16 16 16 15 15 15 15
21 21 21 21 21 21 21 21 20 20 21 21 22 22 22 23 23 23 23 21 20 20 19 18 18 18 18 18 18 17 17 17 17 17 17 17 16 16 16 16 16 15 15 15
21 21 21 22 22 21 21 21 21 21 21 22 21 22 23 23 22 22 22 21 20 20 19 19 18 18 18 18 18 17 17 17 17 17 17 17 16 16 16 16 16 15 15 15
21 21 22 22 22 22 21 21 22 22 22 22 22 23 23 22 22 21 21 21 20 20 19 18 18 18 18 18 17 17 17 17 17 17 17 16 16 16 16 16 16 15 15 15
22 21 21 21 21 21 22 22 22 21 21 22 22 23 23 22 22 22 22 21 20 19 19 18 18 18 18 17 17 17 17 17 17 17 17 16 16 16 16 16 15 15 15 15
22 22 21 21 21 22 21 21 22 22 22 22 22 23 24 23 23 22 22 21 20 19 19 18 18 18 18 17 17 17 17 17 17 16 16 16 16 16 16 16 16 15 15 15
22 22 22 22 22 22 22 23 22 22 22 22 23 23 23 23 23 22 22 21 20 19 18 18 18 17 17 17 17 17 17 17 17 16 16 16 16 16 16 15 15 15 15 15
21 22 21 21 21 21 22 22 22 23 22 22 22 23 22 22 22 21 21 20 19 18 18 18 17 17 17 17 17 17 17 17 16 16 16 16 16 16 15 15 15 15 15 14
21 22 22 22 22 22 22 22 22 22 22 23 23 23 23 22 22 21 20 20 19 18 18 17 17 17 17 17 17 17 17 17 16 16 16 16 16 16 15 15 15 15 14 14
22 22 23 23 23 22 22 22 22 22 23 23 23 23 23 23 22 21 20 19 18 18 18 17 17 17 17 17 17 17 17 17 16 16 16 16 16 15 15 15 15 14 14 14
22 22 22 22 22 22 22 22 22 22 22 23 23 23 24 23 22 21 20 19 18 18 18 17 17 17 17 17 17 17 17 16 16 16 16 16 15 15 15 15 14 14 14 14
22 22 22 23 23 22 22 23 23 23 23 23 23 24 23 23 22 21 20 19 19 18 18 18 17 17 17 17 17 17 17 16 16 16 16 15 15 15 14 14 14 14 14 13
22 22 22 22 22 21 24 24 23 23 23 24 24 24 23 23 21 21 20 20 19 18 18 18 17 17 17 17 17 17 16 16 16 16 15 15 15 15 14 14 14 13 13 13
22 21 21 22 22 22 23 23 23 23 23 24 23 23 22 21 20 20 19 19 19 19 18 18 18 17 17 17 17 16 16 16 16 15 15 15 15 14 14 14 13 13 13 13
19 21 21 21 21 21 23 23 22 23 23 23 23 22 21 21 22 22 20 19 19 18 18 18 17 17 17 17 17 16 16 16 15 15 15 15 14 14 14 14 13 13 13 12
20 20 20 21 21 22 23 21 21 22 24 22 22 22 21 22 23 21 19 19 18 18 18 18 17 17 17 17 16 16 16 15 15 15 15 14 14 14 14 13 13 13 12 12
21 21 21 21 21 22 21 21 22 23 22 21 21 21 21 21 20 19 19 18 18 18 18 17 17 17 17 16 16 16 16 16 15 15 15 14 14 14 13 13 13 12 12 11
20 21 21 22 22 20 19 20 20 19 20 20 20 20 19 19 18 18 18 18 18 18 17 17 17 16 16 16 16 16 16 15 15 14 14 14 13 13 13 12 12 12 11 11
20 18 19 20 21 20 18 18 18 18 18 18 18 18 18 18 18 17 17 17 17 17 17 17 16 16 16 16 15 15 15 15 14 14 14 13 13 12 12 12 12 11 11 11
19 18 19 20 20 19 18 17 17 17 17 17 18 18 18 18 17 17 17 17 16 16 16 16 16 16 16 15 15 14 14 14 14 13 13 13 12 12 12 11 11 11 11 11
18 18 19 20 20 19 19 17 16 16 17 17 17 17 17 17 17 17 16 16 16 16 16 16 16 15 15 15 15 14 14 13 13 13 12 12 12 11 11 11 11 11 10 10
Wind_Speed
4 5 6 6 5 3 5 6 6 4 3 4 5 5 5 5 6 8 9 9 9 9 8 8 9 9 9 8 8 8 8 8 6 4 3 3 3 2 3 3 4 4 4 5
6 5 4 4 5 6 6 6 5 4 3 3 5 5 5 6 7 7 9 10 10 9 9 9 9 10 9 9 8 8 8 8 6 4 3 2 2 2 2 2 3 4 4 4
6 3 5 7 8 7 6 6 6 4 3 3 4 5 6 6 7 7 8 8 9 10 10 11 10 10 10 9 8 7 8 7 6 5 4 4 3 2 2 2 2 3 3 4
4 4 6 7 8 7 5 5 5 5 5 4 5 4 6 8 9 9 9 10 10 10 10 11 11 10 10 10 9 9 8 8 7 6 5 4 3 2 2 1 2 2 2 3
4 6 7 7 6 7 4 5 6 5 5 4 6 4 5 9 10 11 11 11 11 11 12 12 11 11 10 10 9 8 8 7 6 6 5 4 3 2 2 2 2 2 2 3
3 3 4 4 4 5 6 6 5 5 6 6 6 6 5 9 11 11 11 11 11 12 12 12 11 10 10 9 8 8 8 7 6 5 5 4 3 3 2 2 2 1 2 2
6 6 5 5 6 7 8 7 5 6 6 4 4 5 4 6 8 10 12 12 12 13 13 13 12 12 11 10 10 9 9 8 7 6 5 4 3 3 2 2 2 1 2 2
6 6 8 7 7 7 9 8 4 3 4 3 5 6 3 3 5 8 10 10 11 12 13 13 13 12 12 11 10 10 9 8 7 6 5 3 3 2 2 2 1 1 1 2
4 4 5 6 5 6 7 7 5 3 2 3 4 4 3 4 7 9 11 11 12 13 13 13 13 12 12 11 11 10 10 8 7 6 5 4 3 3 2 2 1 1 1 2
4 4 6 6 5 4 5 5 5 4 3 3 4 6 5 9 10 10 12 13 13 13 13 13 13 12 12 11 10 9 9 8 7 6 5 4 3 3 2 2 2 1 2 2
6 4 6 7 8 9 8 7 6 4 4 3 3 2 2 7 10 11 12 13 13 14 14 14 13 12 11 10 10 10 9 8 7 6 5 5 4 3 3 3 3 2 3 3
7 4 5 6 4 5 9 9 9 6 4 4 4 1 3 4 7 9 11 11 12 13 13 13 13 13 12 11 10 10 9 8 7 6 6 5 5 4 4 4 3 3 4 3
7 5 5 6 5 7 8 10 11 8 6 6 6 2 4 4 6 8 10 11 12 13 13 13 13 12 12 11 10 10 9 8 7 7 6 6 6 5 5 4 4 4 4 4
6 6 7 5 2 5 8 10 12 11 8 8 8 5 4 4 6 8 10 12 13 13 14 14 13 12 11 11 10 10 9 8 8 8 7 6 6 6 5 5 5 4 4 4
6 7 7 7 5 6 8 9 12 14 12 9 7 8 7 6 7 9 10 12 13 14 15 15 14 13 12 11 11 10 10 9 9 8 8 7 6 6 6 6 5 5 4 4
6 6 7 8 6 8 9 10 12 14 13 13 11 9 7 5 7 9 11 13 14 15 15 15 14 14 13 13 12 11 10 10 9 9 8 7 7 6 6 6 6 5 4 4
6 6 6 7 5 6 9 11 13 12 12 11 12 10 7 7 9 11 12 14 15 15 15 15 15 14 13 13 13 12 11 10 10 9 8 8 7 7 6 6 6 5 5 4
8 8 5 5 6 9 3 2 7 10 11 11 9 7 8 9 8 9 11 14 15 15 15 15 14 14 13 13 13 12 11 11 10 9 9 8 8 7 7 6 5 5 4 4
8 8 5 5 7 7 4 4 6 8 8 9 10 9 8 6 6 7 10 12 14 14 14 13 14 14 13 13 13 13 12 11 10 10 9 9 8 8 7 6 6 5 4 4
6 8 7 6 7 6 2 2 3 5 5 5 8 9 9 10 9 7 9 11 12 11 11 12 13 13 13 13 13 13 12 11 10 9 9 8 8 8 7 7 6 5 4 3
7 7 11 10 8 6 1 2 5 6 2 2 6 8 11 11 7 5 10 10 11 11 12 13 13 13 13 14 14 13 12 11 10 9 8 8 8 7 7 6 5 5 4 4
7 7 9 8 8 6 2 4 5 3 4 1 3 6 9 7 5 8 10 11 11 12 13 14 13 12 11 13 13 13 11 10 9 9 9 8 8 7 6 6 5 5 4 4
6 5 4 6 3 2 1 3 3 5 4 3 3 4 6 7 7 9 10 10 11 12 12 12 13 12 11 12 12 12 11 10 10 10 9 8 8 7 6 6 6 5 4 4
4 2 4 4 4 2 3 4 4 4 4 4 3 3 6 8 8 9 9 10 10 11 12 12 13 12 11 11 11 10 11 11 11 10 9 8 8 7 6 5 5 4 4 4
3 4 4 5 4 2 1 3 4 4 3 2 1 4 6 8 9 10 9 10 10 11 11 11 12 11 11 11 10 10 10 11 10 10 8 8 7 6 5 5 3 4 3 2
5 5 5 5 3 3 3 4 4 3 2 0 2 4 5 7 8 9 8 9 9 10 11 11 11 11 11 11 10 10 10 11 10 9 8 6 6 5 5 5 4 2 2 2
Wind_Direction
172 188 184 182 196 194 179 177 168 160 158 177 173 180 193 192 187 182 178 182 183 179 170 165 164 162 161 160 157 151 154 152 149 143 140 129 116 106 86 68 58 47 38 36
173 195 187 170 177 183 185 179 175 153 164 194 175 191 210 200 199 197 191 188 186 178 171 165 165 165 166 161 160 156 156 155 153 144 135 126 116 104 82 75 64 47 42 36
193 158 170 180 180 187 201 204 190 178 169 193 189 213 211 195 196 201 202 200 191 184 179 172 169 168 167 165 165 162 160 159 158 151 139 136 132 142 124 100 72 47 39 42
191 176 186 194 191 196 203 199 188 185 204 204 217 215 199 191 195 201 201 200 196 186 179 174 172 171 170 169 168 166 165 163 160 159 159 159 156 130 98 87 83 82 55 49
175 183 191 197 198 200 187 177 186 194 211 222 219 229 193 189 201 202 200 197 192 185 179 176 175 172 169 166 167 167 166 163 163 163 159 169 152 124 115 108 102 96 80 64
187 191 213 203 181 183 163 165 177 203 217 225 214 226 203 195 203 197 196 194 188 182 177 174 171 168 162 161 164 166 165 160 161 165 165 165 150 138 128 125 111 113 106 86
187 192 186 183 168 172 193 187 188 194 206 210 184 227 222 192 198 199 194 188 184 178 174 172 170 170 167 167 168 169 167 163 167 169 165 160 155 156 146 134 124 113 104 93
197 188 187 197 206 190 199 220 237 219 204 179 190 225 196 177 190 196 191 183 179 176 174 172 172 171 170 171 171 172 170 166 168 172 165 156 150 152 128 130 116 111 83 74
209 180 167 193 206 206 200 221 258 280 224 219 195 201 201 185 185 185 184 181 180 177 174 173 171 171 170 171 172 174 172 169 170 168 163 163 158 152 138 136 126 105 92 87
224 189 170 165 179 207 239 212 208 229 225 221 207 221 202 183 188 183 184 185 181 175 173 171 171 172 170 168 168 169 171 167 164 161 159 153 155 149 138 133 125 113 100 99
222 205 170 184 207 202 195 206 221 231 259 263 225 191 170 189 187 186 186 183 179 176 174 172 170 169 166 164 165 168 170 167 164 162 158 155 151 145 140 124 114 114 107 110
210 222 197 194 195 241 226 224 217 230 227 249 270 206 116 186 187 187 183 178 175 174 172 170 167 165 165 166 168 169 169 167 166 163 160 154 147 145 138 123 118 118 110 104
188 217 201 183 193 204 222 225 225 238 246 238 244 204 132 172 180 184 182 176 173 172 169 168 165 167 166 167 168 168 168 167 163 161 159 154 148 140 132 124 117 117 114 109
208 233 238 233 213 193 213 214 216 223 236 242 244 239 214 197 185 178 178 175 172 174 172 171 169 168 167 166 166 166 165 163 160 157 156 151 143 139 135 128 124 118 113 107
219 246 245 260 258 223 228 222 216 225 240 253 254 239 231 221 199 182 174 171 171 176 176 174 172 169 166 165 164 162 161 160 159 157 154 147 142 139 135 130 128 118 110 106
222 248 246 244 236 231 235 233 228 231 240 247 253 250 236 216 188 183 180 177 180 178 178 177 174 170 170 168 165 163 163 162 161 159 152 144 144 141 140 137 132 123 119 112
207 233 244 240 217 229 240 234 227 228 230 234 238 236 207 199 192 191 186 187 189 182 179 178 177 175 174 170 166 165 163 160 163 159 153 152 150 146 145 142 137 135 134 124
218 224 241 247 222 237 247 200 216 229 237 233 235 227 205 201 193 197 195 191 189 184 180 178 176 172 171 167 164 161 159 162 163 160 157 157 156 153 149 146 145 149 145 138
227 220 231 240 241 253 241 201 202 220 239 226 222 218 205 184 176 201 199 193 188 182 179 175 172 168 166 164 163 161 163 164 164 164 163 162 161 157 155 155 156 154 152 151
202 220 232 234 243 246 243 160 197 223 240 211 211 207 193 183 200 201 177 180 179 174 170 168 166 164 163 163 162 164 165 166 169 169 168 166 165 163 164 165 163 158 161 165
186 205 223 232 242 254 315 131 179 216 254 153 203 203 194 202 214 159 156 164 167 166 164 163 162 164 165 163 166 170 171 173 169 166 166 168 169 169 167 167 169 169 170 173
214 211 216 221 232 242 118 163 205 316 3 288 223 207 201 198 158 148 150 153 156 159 161 162 161 160 161 165 169 171 172 167 160 161 164 166 166 165 166 167 174 179 179 186
225 234 236 229 240 31 182 242 309 329 322 306 251 215 192 177 168 162 158 154 155 158 159 161 158 157 160 167 172 171 166 160 160 161 164 165 165 166 170 173 178 184 190 204
209 224 231 243 253 291 288 292 294 299 303 306 260 198 177 170 162 157 157 156 156 160 160 159 158 160 163 169 173 170 161 161 163 165 165 166 168 169 171 176 185 191 198 210
219 199 227 246 269 292 299 322 324 321 312 308 203 174 170 162 160 158 157 157 157 157 160 161 162 165 166 168 170 167 165 167 169 168 168 169 170 172 176 178 189 200 202 220
218 226 242 256 286 286 319 350 341 328 323 305 165 157 158 160 157 155 155 154 155 156 157 159 161 164 167 167 167 166 169 173 174 173 172 172 172 174 180 180 177 154 209 171
Height
1510 1509 1509 1509 1509 1509 1509 1512 1515 1517 1517 1518 1519 1521 1521 1524 1525 1526 1529 1531 1534 1536 1539 1541 1543 1545 1548 1550 1551 1553 1554 1555 1556 1558 1558 1559 1559 1559 1559 1558 1558 1557 1556 1555
1510 1510 1509 1509 1510 1511 1511 1514 1516 1517 1517 1517 1519 1520 1520 1522 1523 1525 1526 1529 1531 1535 1537 1540 1542 1544 1547 1549 1551 1552 1554 1555 1557 1557 1559 1559 1559 1560 1559 1559 1558 1558 1557 1556
1507 1508 1509 1510 1511 1513 1513 1513 1514 1517 1518 1517 1519 1522 1519 1519 1522 1524 1525 1527 1529 1532 1535 1538 1541 1543 1546 1548 1550 1552 1554 1555 1556 1557 1559 1559 1560 1560 1560 1560 1559 1558 1557 1556
1506 1507 1509 1510 1510 1510 1514 1511 1513 1516 1518 1520 1518 1523 1516 1515 1518 1521 1523 1525 1527 1530 1533 1536 1539 1542 1545 1547 1549 1552 1553 1555 1556 1557 1559 1560 1560 1561 1561 1561 1560 1559 1558 1557
1506 1506 1507 1509 1508 1509 1510 1511 1513 1514 1517 1519 1516 1518 1514 1512 1514 1516 1519 1522 1525 1528 1531 1534 1538 1541 1544 1546 1548 1551 1553 1554 1556 1557 1558 1559 1560 1561 1561 1560 1560 1560 1559 1558
1504 1506 1506 1506 1508 1509 1510 1513 1514 1513 1514 1522 1514 1515 1514 1507 1508 1510 1515 1519 1522 1526 1529 1533 1536 1539 1542 1545 1547 1549 1551 1553 1555 1556 1558 1559 1560 1560 1560 1560 1560 1560 1560 1559
1505 1505 1506 1507 1508 1511 1511 1516 1522 1523 1522 1516 1509 1512 1508 1501 1503 1506 1511 1515 1520 1523 1527 1531 1534 1537 1540 1543 1546 1548 1550 1552 1554 1556 1558 1559 1559 1560 1560 1560 1560 1560 1560 1560
1505 1507 1503 1504 1504 1506 1507 1509 1517 1522 1519 1512 1511 1509 1502 1501 1504 1507 1510 1514 1518 1521 1525 1529 1532 1535 1538 1541 1544 1547 1549 1551 1553 1555 1557 1558 1559 1559 1560 1560 1560 1560 1560 1560
1500 1503 1500 1502 1503 1503 1506 1507 1504 1507 1509 1511 1506 1502 1500 1501 1503 1506 1509 1512 1515 1519 1523 1527 1530 1534 1537 1540 1543 1545 1548 1550 1552 1554 1556 1557 1558 1558 1559 1559 1560 1560 1560 1559
1494 1501 1500 1502 1504 1505 1502 1501 1506 1509 1514 1514 1507 1502 1498 1498 1499 1502 1506 1509 1513 1517 1521 1525 1528 1532 1535 1538 1541 1544 1547 1549 1551 1553 1555 1556 1557 1557 1558 1559 1559 1559 1559 1559
1494 1498 1502 1501 1501 1500 1503 1504 1502 1503 1504 1508 1509 1500 1487 1490 1494 1498 1502 1506 1510 1514 1518 1522 1526 1530 1534 1537 1540 1543 1546 1548 1550 1552 1553 1555 1556 1556 1557 1557 1558 1558 1558 1558
1493 1493 1497 1496 1495 1495 1495 1495 1498 1505 1504 1502 1501 1499 1488 1490 1493 1496 1500 1504 1509 1513 1517 1521 1525 1528 1532 1535 1539 1541 1544 1547 1549 1550 1552 1553 1555 1555 1556 1557 1557 1558 1558 1558
1493 1493 1498 1501 1502 1498 1496 1494 1494 1494 1497 1498 1501 1497 1489 1490 1492 1495 1499 1503 1507 1511 1515 1519 1523 1526 1530 1533 1537 1540 1543 1545 1547 1549 1551 1552 1554 1555 1555 1556 1556 1557 1557 1558
1492 1488 1492 1496 1491 1489 1492 1492 1492 1493 1495 1494 1492 1490 1487 1488 1491 1494 1498 1501 1505 1510 1514 1517 1520 1524 1528 1531 1535 1538 1541 1544 1546 1548 1550 1551 1553 1554 1554 1555 1556 1556 1557 1557
1490 1487 1485 1484 1483 1485 1487 1488 1490 1490 1486 1488 1485 1485 1484 1486 1489 1493 1497 1500 1504 1508 1511 1515 1518 1522 1525 1529 1533 1536 1539 1542 1544 1546 1548 1550 1551 1552 1553 1554 1555 1555 1556 1556
1488 1486 1484 1484 1483 1483 1485 1484 1485 1486 1485 1484 1484 1483 1480 1484 1488 1491 1495 1498 1501 1504 1508 1512 1516 1520 1523 1527 1531 1534 1537 1540 1543 1545 1547 1548 1550 1551 1552 1553 1554 1555 1555 1556
1484 1485 1485 1483 1481 1483 1485 1478 1479 1480 1478 1479 1481 1478 1479 1483 1486 1489 1492 1495 1498 1501 1505 1509 1513 1517 1521 1525 1529 1532 1536 1538 1541 1544 1545 1547 1549 1550 1551 1552 1553 1553 1554 1554
1482 1483 1483 1483 1485 1492 1475 1469 1472 1474 1473 1473 1473 1475 1478 1481 1484 1487 1490 1493 1496 1499 1503 1507 1511 1515 1519 1523 1527 1531 1534 1537 1539 1542 1544 1545 1547 1548 1550 1551 1552 1552 1553 1553
1480 1481 1483 1483 1484 1479 1471 1470 1471 1472 1471 1470 1472 1474 1477 1480 1484 1485 1487 1490 1493 1496 1500 1504 1508 1512 1517 1521 1525 1528 1532 1535 1537 1540 1542 1544 1545 1547 1548 1549 1550 1551 1552 1552
1482 1481 1482 1483 1485 1484 1470 1467 1469 1471 1471 1468 1470 1472 1475 1478 1479 1480 1484 1487 1491 1495 1499 1503 1507 1511 1515 1519 1522 1526 1530 1533 1535 1537 1540 1542 1544 1545 1546 1548 1549 1550 1551 1551
1480 1481 1481 1480 1481 1473 1467 1470 1471 1476 1469 1467 1468 1470 1472 1473 1474 1477 1481 1484 1488 1492 1496 1500 1505 1508 1512 1516 1520 1524 1527 1530 1533 1535 1538 1540 1541 1543 1545 1546 1547 1548 1549 1549
1472 1475 1475 1476 1480 1476 1469 1470 1469 1467 1467 1467 1468 1469 1471 1472 1474 1476 1479 1482 1486 1490 1494 1498 1502 1506 1510 1514 1518 1521 1525 1528 1530 1533 1535 1537 1539 1541 1543 1544 1545 1546 1547 1548
1470 1469 1468 1469 1470 1469 1470 1470 1470 1469 1469 1468 1468 1469 1470 1472 1473 1476 1478 1481 1485 1488 1492 1496 1500 1504 1508 1512 1516 1519 1522 1525 1527 1530 1533 1535 1537 1539 1540 1542 1543 1544 1545 1545
1469 1472 1471 1468 1466 1469 1469 1469 1469 1469 1469 1468 1468 1468 1469 1471 1473 1475 1477 1480 1483 1487 1491 1494 1498 1502 1506 1509 1513 1517 1520 1523 1525 1528 1530 1533 1535 1536 1538 1539 1540 1541 1542 1542
1469 1471 1469 1467 1466 1468 1468 1468 1468 1467 1467 1467 1467 1467 1469 1470 1472 1474 1476 1479 1482 1486 1489 1493 1496 1500 1504 1507 1511 1514 1517 1520 1523 1526 1528 1530 1532 1533 1535 1536 1537 1538 1539 1539
1469 1469 1468 1466 1467 1467 1468 1468 1467 1467 1466 1466 1466 1467 1468 1470 1471 1474 1476 1479 1482 1485 1488 1491 1495 1499 1502 1505 1508 1511 1514 1518 1521 1523 1525 1527 1529 1530 1532 1533 1534 1534 1535 1536